WXM80 ListenWXM80 Stop

You find our weather info also at:

UK Metoffice

WeatherCloud

Weather Underground

Northeastern Weather Network

AWEKAS

Citizen Weather Observer Program (CWOP)

HAMweather, WeatherForYou, PWS Weather


Weather Underground History page Text

Daily Summary for February 15, 2018 Units:  Metric    English   Both
« Previous Day
Next Day »
Daily Weekly Monthly Yearly Custom
  High: Low: Average:
Temperature: 14.1 °C 6.5 °C 10.1 °C
Dew Point: 11.6 °C 5.6 °C 8.7 °C
Humidity: 97 % 80 % 91 %
Wind Speed: 12.9 km/h 0 km/h 3.1 km/h
Wind Gust: 29.6 km/h - -
Wind:- - SW
Pressure: 1008.7 hPa 995.5 hPa -
Precipitation: 0.51 mm    
Historical Graphs
 
 
Tabular Data for February 15, 2018
Time Temperature Dew Point Pressure Wind Wind Speed Wind Gust Humidity Rainfall Rate (Hourly)
00:01 7.2 °C 5.6 °C 1008.7 hPa SSW 3.2 km/h 6.4 km/h 90 % 0 mm
00:06 7.2 °C 5.8 °C 1008.7 hPa SSW 3.2 km/h 8 km/h 91 % 0 mm
00:11 7.1 °C 5.7 °C 1008.4 hPa Calm   6.4 km/h 91 % 0 mm
00:16 7.1 °C 5.7 °C 1008.4 hPa SSW 1.6 km/h 6.4 km/h 91 % 0 mm
00:21 7.1 °C 5.7 °C 1008.7 hPa SSW 4.8 km/h 9.7 km/h 91 % 0 mm
00:26 7 °C 5.8 °C 1008.7 hPa SSW 3.2 km/h 8 km/h 92 % 0 mm
00:31 6.9 °C 5.7 °C 1008.7 hPa SSW 3.2 km/h 8 km/h 92 % 0 mm
00:36 6.9 °C 5.7 °C 1008.7 hPa SSW 3.2 km/h 9.7 km/h 92 % 0 mm
00:41 6.9 °C 5.7 °C 1008.4 hPa SSW 1.6 km/h 8 km/h 92 % 0 mm
00:46 6.8 °C 5.6 °C 1008.4 hPa SSW 3.2 km/h 6.4 km/h 92 % 0 mm
00:51 6.8 °C 5.6 °C 1008.4 hPa SW 3.2 km/h 9.7 km/h 92 % 0 mm
00:56 6.8 °C 5.8 °C 1008.4 hPa Calm   4.8 km/h 93 % 0 mm
01:01 6.8 °C 5.7 °C 1008.4 hPa Calm   3.7 km/h 93 % 0 mm
01:06 6.8 °C 5.7 °C 1008.4 hPa WSW 2.3 km/h 7.4 km/h 93 % 0 mm
01:11 6.8 °C 5.7 °C 1008.4 hPa SW 2.7 km/h 5.6 km/h 93 % 0 mm
01:16 6.8 °C 5.7 °C 1008.4 hPa SW 0.3 km/h 3.7 km/h 93 % 0 mm
01:21 6.8 °C 5.7 °C 1008 hPa Calm     93 % 0 mm
01:26 6.8 °C 5.8 °C 1007.7 hPa SW 2.3 km/h 5.6 km/h 93 % 0 mm
01:31 6.8 °C 5.8 °C 1007.7 hPa SW 3.4 km/h 5.6 km/h 93 % 0 mm
01:36 6.8 °C 5.8 °C 1007.7 hPa SSW 2.7 km/h 7.4 km/h 93 % 0 mm
01:41 6.8 °C 5.9 °C 1007.7 hPa SSW 3.1 km/h 5.6 km/h 94 % 0 mm
01:46 6.8 °C 5.9 °C 1007.3 hPa SSW 2.6 km/h 5.6 km/h 94 % 0 mm
01:51 6.8 °C 5.9 °C 1007.3 hPa SSW 2.6 km/h 3.7 km/h 94 % 0 mm
01:56 6.8 °C 5.9 °C 1007.3 hPa SSW 1.1 km/h 3.2 km/h 94 % 0 mm
02:01 6.9 °C 6 °C 1007.3 hPa SSW 3.2 km/h 8 km/h 94 % 0 mm
02:06 6.9 °C 6 °C 1007.3 hPa SSW 6.3 km/h 11.3 km/h 94 % 0 mm
02:11 6.9 °C 6.1 °C 1007.3 hPa SSW 4.3 km/h 7.4 km/h 94 % 0 mm
02:17 6.9 °C 6.1 °C 1007 hPa SSW 5.8 km/h 11.1 km/h 94 % 0 mm
02:22 6.9 °C 6.1 °C 1007 hPa SSW 7.9 km/h 9.3 km/h 94 % 0 mm
02:27 6.9 °C 6.1 °C 1007 hPa SSW 4.3 km/h 7.4 km/h 94 % 0 mm
02:32 6.9 °C 6.2 °C 1007 hPa SW 2.9 km/h 5.6 km/h 95 % 0 mm
02:37 6.9 °C 6.2 °C 1007 hPa SSW 3.9 km/h 7.4 km/h 95 % 0 mm
02:42 6.9 °C 6.2 °C 1006.7 hPa SSW 1.9 km/h 5.6 km/h 95 % 0 mm
02:47 6.8 °C 6.1 °C 1007 hPa SW 2.3 km/h 5.6 km/h 95 % 0 mm
02:52 6.8 °C 6.1 °C 1006.7 hPa SW 1.6 km/h 3.7 km/h 95 % 0 mm
02:57 6.8 °C 6.1 °C 1006.7 hPa SW 0.5 km/h 3.2 km/h 95 % 0 mm
03:02 6.8 °C 5.9 °C 1006.3 hPa Calm     94 % 0 mm
03:07 6.8 °C 5.9 °C 1006.3 hPa SW 0.8 km/h 1.9 km/h 94 % 0 mm
03:12 6.8 °C 5.9 °C 1006.3 hPa SW 1.3 km/h 4.8 km/h 94 % 0 mm
03:17 6.8 °C 5.9 °C 1006.3 hPa Calm     94 % 0 mm
03:22 6.8 °C 5.9 °C 1006.3 hPa SW 0.8 km/h 3.7 km/h 94 % 0 mm
03:27 6.7 °C 5.8 °C 1006 hPa Calm   1.9 km/h 94 % 0 mm
03:32 6.7 °C 5.8 °C 1006 hPa Calm     94 % 0 mm
03:37 6.7 °C 5.8 °C 1006 hPa Calm     94 % 0.25 mm
03:42 6.7 °C 5.8 °C 1006 hPa Calm     94 % 0.25 mm
03:47 6.7 °C 5.8 °C 1006 hPa Calm     94 % 0.51 mm
03:52 6.7 °C 6 °C 1006 hPa SW 0.2 km/h   95 % 0.51 mm
03:58 6.7 °C 6 °C 1006 hPa Calm   1.9 km/h 95 % 0.51 mm
04:03 6.7 °C 6 °C 1006 hPa SW 0.8 km/h 5.6 km/h 95 % 0.51 mm
04:08 6.7 °C 6 °C 1006 hPa SW 0.5 km/h 3.7 km/h 95 % 0.51 mm
04:13 6.7 °C 6 °C 1006 hPa SW 1 km/h 3.7 km/h 95 % 0.51 mm
04:18 6.7 °C 6 °C 1006 hPa SW 0.2 km/h 1.9 km/h 95 % 0.51 mm
04:23 6.7 °C 6 °C 1006 hPa SW 1.3 km/h 3.2 km/h 95 % 0.51 mm
04:28 6.7 °C 6 °C 1006 hPa SW 0.3 km/h 3.2 km/h 95 % 0.51 mm
04:33 6.7 °C 6 °C 1006 hPa SW 4.2 km/h 5.6 km/h 95 % 0.25 mm
04:38 6.7 °C 6 °C 1006 hPa SW 2.4 km/h 5.6 km/h 95 % 0.25 mm
04:43 6.7 °C 5.9 °C 1006 hPa Calm   3.7 km/h 95 % 0.25 mm
04:48 6.7 °C 5.9 °C 1006 hPa SSW 3.1 km/h 3.1 km/h 95 % 0 mm
04:54 6.7 °C 5.9 °C 1006 hPa SSW 1.4 km/h 5.6 km/h 95 % 0 mm
04:59 6.7 °C 5.9 °C 1005.6 hPa SSE 2.4 km/h 6.4 km/h 95 % 0 mm
05:04 6.6 °C 5.9 °C 1005.6 hPa Calm   1.9 km/h 95 % 0 mm
05:09 6.6 °C 5.9 °C 1005.6 hPa Calm   1.9 km/h 95 % 0 mm
05:14 6.6 °C 5.9 °C 1005.3 hPa SSW 2.1 km/h 5.6 km/h 95 % 0 mm
05:19 6.6 °C 5.8 °C 1005.3 hPa SSW 2.3 km/h 5.6 km/h 95 % 0 mm
05:24 6.6 °C 5.8 °C 1005.3 hPa SSW 2.7 km/h 7.4 km/h 95 % 0 mm
05:29 6.6 °C 5.8 °C 1005.3 hPa South 0.3 km/h 1.9 km/h 95 % 0 mm
05:34 6.6 °C 5.8 °C 1005.3 hPa South 4 km/h 9.3 km/h 95 % 0 mm
05:39 6.6 °C 5.8 °C 1005.3 hPa South 0.6 km/h 5.6 km/h 95 % 0 mm
05:44 6.5 °C 5.8 °C 1005 hPa South 1.8 km/h 6.4 km/h 95 % 0 mm
05:49 6.5 °C 5.8 °C 1005 hPa South 3.2 km/h 4.8 km/h 95 % 0 mm
05:54 6.5 °C 5.9 °C 1005 hPa SSW 2.7 km/h 3.7 km/h 96 % 0 mm
05:59 6.5 °C 5.9 °C 1005 hPa Calm     96 % 0 mm
06:04 6.6 °C 5.9 °C 1004.6 hPa SW 0.8 km/h 5.6 km/h 96 % 0 mm
06:09 6.6 °C 5.9 °C 1005 hPa SW 3.4 km/h 3.7 km/h 96 % 0 mm
06:14 6.6 °C 5.9 °C 1004.6 hPa SSW 2.7 km/h 6.4 km/h 96 % 0 mm
06:19 6.6 °C 5.9 °C 1005 hPa SSW 5.1 km/h 5.6 km/h 96 % 0 mm
06:24 6.5 °C 5.9 °C 1004.6 hPa South 4.3 km/h 7.4 km/h 96 % 0 mm
06:30 6.5 °C 5.9 °C 1004.6 hPa WSW 5 km/h 7.4 km/h 96 % 0 mm
06:35 6.5 °C 5.9 °C 1004.6 hPa SW 1.8 km/h 5.6 km/h 96 % 0 mm
06:40 6.5 °C 5.9 °C 1004.6 hPa WSW 2.1 km/h 5.6 km/h 96 % 0 mm
06:45 6.5 °C 5.9 °C 1004.6 hPa SW 4.5 km/h 7.4 km/h 96 % 0 mm
06:50 6.5 °C 5.9 °C 1004.6 hPa SW 3.7 km/h 5.6 km/h 96 % 0 mm
06:55 6.5 °C 5.9 °C 1004.6 hPa SSW 1.6 km/h 3.7 km/h 96 % 0 mm
07:00 6.6 °C 5.9 °C 1004.6 hPa SW 5.3 km/h 8 km/h 96 % 0 mm
07:05 6.6 °C 5.9 °C 1004.6 hPa SW 7.1 km/h 7.4 km/h 96 % 0 mm
07:10 6.6 °C 5.9 °C 1004.3 hPa SW 3.9 km/h 5.6 km/h 96 % 0 mm
07:15 6.6 °C 5.9 °C 1004.6 hPa SW 2.9 km/h 5.6 km/h 96 % 0 mm
07:20 6.6 °C 6 °C 1004.6 hPa SW 1 km/h 3.2 km/h 96 % 0 mm
07:25 6.7 °C 6.1 °C 1004.6 hPa SW 0.2 km/h   96 % 0 mm
07:30 6.7 °C 6.1 °C 1004.6 hPa SSW 5.3 km/h 9.7 km/h 96 % 0 mm
07:35 6.8 °C 6.2 °C 1004.6 hPa SSW 3.1 km/h 5.6 km/h 96 % 0 mm
07:40 6.8 °C 6.2 °C 1004.6 hPa SSW 0.5 km/h 6.4 km/h 96 % 0 mm
07:45 6.8 °C 6.2 °C 1004.6 hPa SSW 1 km/h 3.7 km/h 96 % 0 mm
07:50 6.9 °C 6.3 °C 1004.6 hPa Calm     96 % 0 mm
07:56 6.9 °C 6.3 °C 1004.6 hPa SSW 1.6 km/h 4.8 km/h 96 % 0 mm
08:01 7 °C 6.4 °C 1004.6 hPa South 2.4 km/h 5.6 km/h 96 % 0 mm
08:06 7.1 °C 6.6 °C 1004.6 hPa South 1.9 km/h 7.4 km/h 97 % 0 mm
08:11 7.1 °C 6.7 °C 1004.6 hPa SSW 3.5 km/h 11.1 km/h 97 % 0 mm
08:16 7.2 °C 6.6 °C 1004.6 hPa SW 2.1 km/h 7.4 km/h 96 % 0 mm
08:21 7.3 °C 6.8 °C 1004.6 hPa WSW 1.4 km/h 7.4 km/h 97 % 0 mm
08:26 7.4 °C 6.9 °C 1004.6 hPa SW 1.3 km/h 5.6 km/h 97 % 0 mm
08:31 7.4 °C 7 °C 1004.6 hPa SW 1.4 km/h 5.6 km/h 97 % 0 mm
08:36 7.6 °C 7.1 °C 1004.3 hPa South 1 km/h 5.6 km/h 97 % 0 mm
08:41 7.7 °C 7.2 °C 1004.6 hPa South 0.6 km/h 1.9 km/h 97 % 0 mm
08:46 7.8 °C 7.3 °C 1004.3 hPa Calm     97 % 0 mm
08:51 7.9 °C 7.4 °C 1004.6 hPa South 0.2 km/h 1.6 km/h 97 % 0 mm
08:56 7.9 °C 7.5 °C 1004.3 hPa South 2.6 km/h 5.6 km/h 97 % 0 mm
09:01 8.1 °C 7.6 °C 1004.3 hPa West 2.1 km/h 5.6 km/h 97 % 0 mm
09:06 8.2 °C 7.7 °C 1004.3 hPa South 4.5 km/h 5.6 km/h 97 % 0 mm
09:11 8.3 °C 7.8 °C 1003.9 hPa SSW 3.5 km/h 5.6 km/h 97 % 0 mm
09:16 8.4 °C 7.9 °C 1003.9 hPa Calm     97 % 0 mm
09:22 8.5 °C 8.1 °C 1003.9 hPa SW 1.8 km/h 3.2 km/h 97 % 0 mm
09:27 8.6 °C 8.2 °C 1004.3 hPa Calm   5.6 km/h 97 % 0 mm
09:32 8.7 °C 8.3 °C 1003.9 hPa SSW 5.8 km/h 11.3 km/h 97 % 0 mm
09:37 8.8 °C 8.3 °C 1003.9 hPa South 1.4 km/h 5.6 km/h 97 % 0 mm
09:42 8.9 °C 8.5 °C 1003.9 hPa SSW 6 km/h 7.4 km/h 97 % 0 mm
09:47 9.1 °C 8.6 °C 1003.9 hPa SSW 1 km/h 5.6 km/h 97 % 0 mm
09:52 9.2 °C 8.7 °C 1003.9 hPa SW 1.8 km/h 5.6 km/h 97 % 0 mm
09:57 9.3 °C 8.8 °C 1003.9 hPa SSW 5.5 km/h 14.8 km/h 97 % 0 mm
10:02 9.3 °C 8.9 °C 1003.6 hPa SSW 6 km/h 12.9 km/h 97 % 0 mm
10:07 9.5 °C 9.1 °C 1003.6 hPa SW 6.9 km/h 13 km/h 97 % 0 mm
10:12 9.8 °C 9.3 °C 1003.6 hPa SW 6.3 km/h 8 km/h 97 % 0 mm
10:17 9.8 °C 9.2 °C 1003.6 hPa South 4.2 km/h 5.6 km/h 96 % 0 mm
10:22 9.9 °C 9.3 °C 1003.3 hPa SSW 8 km/h 11.3 km/h 96 % 0 mm
10:27 9.9 °C 9.2 °C 1003.3 hPa WSW 5 km/h 11.1 km/h 95 % 0 mm
10:32 10 °C 9.2 °C 1003.3 hPa West 10.3 km/h 14.8 km/h 95 % 0 mm
10:37 10.1 °C 9.3 °C 1003.6 hPa SW 6.8 km/h 7.4 km/h 95 % 0 mm
10:42 10.1 °C 9.1 °C 1003.3 hPa SW 1.9 km/h 11.1 km/h 94 % 0 mm
10:47 10.1 °C 9.1 °C 1003.3 hPa WSW 2.1 km/h 11.1 km/h 94 % 0 mm
10:53 10.1 °C 9 °C 1003.3 hPa SW 1.9 km/h 5.6 km/h 93 % 0 mm
10:58 10.1 °C 9 °C 1003.3 hPa SSW 5.8 km/h 8 km/h 93 % 0 mm
11:03 10.1 °C 9 °C 1003.3 hPa SW 4.7 km/h 7.4 km/h 93 % 0 mm
11:08 10.1 °C 9.1 °C 1002.9 hPa West 1.1 km/h 5.6 km/h 93 % 0 mm
11:13 10.2 °C 9.2 °C 1002.9 hPa SSW 4.7 km/h 11.3 km/h 93 % 0 mm
11:18 10.3 °C 9.3 °C 1002.9 hPa WSW 3.5 km/h 7.4 km/h 93 % 0 mm
11:23 10.7 °C 9.7 °C 1002.9 hPa SSW 3.9 km/h 7.4 km/h 94 % 0 mm
11:28 11.1 °C 10.1 °C 1002.6 hPa SW 7.4 km/h 9.7 km/h 94 % 0 mm
11:33 11.5 °C 10.4 °C 1002.6 hPa SSW 4.3 km/h 11.3 km/h 93 % 0 mm
11:38 11.8 °C 10.4 °C 1002.6 hPa SW 6.1 km/h 14.8 km/h 91 % 0 mm
11:43 12.1 °C 10.4 °C 1002.3 hPa SSW 9.5 km/h 13 km/h 90 % 0 mm
11:48 12.2 °C 10.4 °C 1002.3 hPa SW 4.2 km/h 7.4 km/h 89 % 0 mm
11:53 12.4 °C 10.6 °C 1002.3 hPa SSW 8 km/h 9.3 km/h 89 % 0 mm
11:58 12.6 °C 10.6 °C 1001.9 hPa SW 4.5 km/h 14.8 km/h 88 % 0 mm
12:03 12.7 °C 10.8 °C 1002.3 hPa WSW 9.5 km/h 16.7 km/h 88 % 0 mm
12:08 12.9 °C 10.9 °C 1001.9 hPa SW 6.4 km/h 9.7 km/h 88 % 0 mm
12:14 13.2 °C 11.3 °C 1001.6 hPa SW 5.8 km/h 5.8 km/h 88 % 0 mm
12:19 13.5 °C 11.6 °C 1001.9 hPa WSW 2.4 km/h 5.6 km/h 88 % 0 mm
12:24 13.7 °C 11.6 °C 1001.6 hPa South 12.9 km/h 16.7 km/h 87 % 0 mm
12:29 13.8 °C 11.3 °C 1001.6 hPa SSW 10 km/h 14.8 km/h 85 % 0 mm
12:34 13.8 °C 11.1 °C 1001.6 hPa West 5.8 km/h 12.9 km/h 84 % 0 mm
12:39 13.8 °C 11.2 °C 1001.6 hPa West 0.3 km/h 5.6 km/h 84 % 0 mm
12:44 13.8 °C 11.2 °C 1001.6 hPa West 5.5 km/h 8 km/h 84 % 0 mm
12:49 13.8 °C 11 °C 1001.6 hPa SSW 7.7 km/h 13 km/h 83 % 0 mm
12:54 13.8 °C 11.2 °C 1001.2 hPa WSW 6.1 km/h 11.1 km/h 84 % 0 mm
12:59 13.8 °C 11.2 °C 1001.2 hPa WSW 1.9 km/h 4.8 km/h 84 % 0 mm
13:04 13.9 °C 11.2 °C 1001.2 hPa WSW 4 km/h 7.4 km/h 84 % 0 mm
13:09 13.9 °C 11.3 °C 1000.9 hPa SSW 1 km/h 3.7 km/h 84 % 0 mm
13:14 13.9 °C 11.1 °C 1000.9 hPa SSW 7.1 km/h 11.1 km/h 83 % 0 mm
13:19 14 °C 11.2 °C 1000.9 hPa SW 5.5 km/h 7.4 km/h 83 % 0 mm
13:24 14 °C 11.2 °C 1000.6 hPa SW 5.8 km/h 7.4 km/h 83 % 0 mm
13:29 14 °C 11.2 °C 1000.6 hPa SSW 6 km/h 13 km/h 83 % 0 mm
13:34 14 °C 11.2 °C 1000.6 hPa SSW 4.3 km/h 9.7 km/h 83 % 0 mm
13:40 14 °C 11.2 °C 1000.6 hPa SSW 9.5 km/h 14.8 km/h 83 % 0 mm
13:45 14 °C 11.2 °C 1000.6 hPa South 7.6 km/h 11.1 km/h 83 % 0 mm
13:50 14.1 °C 11.4 °C 1000.2 hPa SW 5.8 km/h 14.8 km/h 84 % 0 mm
13:55 14 °C 11.2 °C 1000.2 hPa SW 9.2 km/h 13 km/h 83 % 0 mm
14:00 14 °C 11.2 °C 1000.2 hPa SW 7.4 km/h 13 km/h 83 % 0 mm
14:05 14.1 °C 11.2 °C 999.9 hPa SSW 6.4 km/h 17.7 km/h 83 % 0 mm
14:10 14 °C 11.2 °C 999.9 hPa WSW 9.8 km/h 14.8 km/h 83 % 0 mm
14:15 14 °C 11.2 °C 999.9 hPa SSW 9 km/h 13 km/h 83 % 0 mm
14:20 13.9 °C 10.9 °C 999.5 hPa SSW 9.3 km/h 14.8 km/h 82 % 0 mm
14:25 13.8 °C 11 °C 999.5 hPa SW 9.3 km/h 14.8 km/h 83 % 0 mm
14:30 13.8 °C 10.9 °C 999.5 hPa SSW 6 km/h 9.3 km/h 83 % 0 mm
14:35 13.7 °C 10.8 °C 999.5 hPa SW 12.7 km/h 29.6 km/h 83 % 0 mm
14:40 13.6 °C 10.8 °C 999.9 hPa SW 6.3 km/h 11.1 km/h 83 % 0 mm
14:45 13.6 °C 10.9 °C 999.5 hPa SSW 5.6 km/h 9.3 km/h 84 % 0 mm
14:50 13.5 °C 10.8 °C 999.5 hPa SSW 6.1 km/h 11.1 km/h 84 % 0 mm
14:55 13.5 °C 10.8 °C 999.5 hPa WSW 5.5 km/h 14.8 km/h 84 % 0 mm
15:00 13.5 °C 11 °C 999.2 hPa SW 6.4 km/h 14.5 km/h 85 % 0 mm
15:06 13.6 °C 11.1 °C 999.2 hPa SW 8 km/h 14.5 km/h 85 % 0 mm
15:11 13.7 °C 11.2 °C 999.2 hPa South 3.1 km/h 8 km/h 85 % 0 mm
15:16 13.7 °C 11.2 °C 999.2 hPa SSW 4.8 km/h 16.1 km/h 85 % 0 mm
15:21 13.8 °C 11.1 °C 999.2 hPa WSW 6.3 km/h 13 km/h 84 % 0 mm
15:26 13.8 °C 11.2 °C 999.2 hPa SW 10.5 km/h 16.7 km/h 84 % 0 mm
15:31 13.9 °C 11.2 °C 999.2 hPa South 7.2 km/h 11.1 km/h 84 % 0 mm
15:36 13.9 °C 11.2 °C 998.9 hPa SW 3.9 km/h 9.3 km/h 84 % 0 mm
15:41 13.9 °C 11.3 °C 998.9 hPa SSW 7.4 km/h 9.3 km/h 84 % 0 mm
15:46 13.9 °C 11.3 °C 999.2 hPa SSW 2.7 km/h 9.3 km/h 84 % 0 mm
15:51 14 °C 11.3 °C 999.2 hPa SSW 7.2 km/h 12.9 km/h 84 % 0 mm
15:56 14 °C 11.3 °C 999.2 hPa South 7.2 km/h 14.8 km/h 84 % 0 mm
16:01 14 °C 11.3 °C 999.2 hPa SW 5.3 km/h 7.4 km/h 84 % 0 mm
16:06 14 °C 11.3 °C 998.9 hPa South 3.9 km/h 8 km/h 84 % 0 mm
16:11 14 °C 11.3 °C 999.2 hPa WSW 3.9 km/h 7.4 km/h 84 % 0 mm
16:17 14 °C 11.3 °C 999.2 hPa Calm   5.6 km/h 84 % 0 mm
16:22 13.9 °C 11.3 °C 999.2 hPa WSW 1.3 km/h 3.7 km/h 84 % 0 mm
16:27 13.9 °C 11.3 °C 999.2 hPa SSW 2.4 km/h 7.4 km/h 84 % 0 mm
16:32 13.9 °C 11.2 °C 999.2 hPa SSW 0.6 km/h 3.7 km/h 84 % 0 mm
16:37 13.8 °C 11.2 °C 999.2 hPa Calm     84 % 0 mm
16:42 13.7 °C 10.5 °C 999.2 hPa South 0.8 km/h 3.7 km/h 81 % 0 mm
16:47 13.5 °C 10.1 °C 999.2 hPa Calm     80 % 0 mm
16:52 13.3 °C 9.9 °C 999.5 hPa Calm     80 % 0 mm
16:57 13.1 °C 9.7 °C 999.2 hPa Calm     80 % 0 mm
17:02 13 °C 9.8 °C 999.2 hPa Calm   1.6 km/h 81 % 0 mm
17:07 12.9 °C 9.9 °C 999.2 hPa WSW 0.2 km/h 3.7 km/h 82 % 0 mm
17:12 12.8 °C 9.9 °C 999.2 hPa WSW 0.8 km/h 3.7 km/h 83 % 0 mm
17:17 12.7 °C 10.1 °C 998.9 hPa WSW 2.3 km/h 3.7 km/h 84 % 0 mm
17:22 12.7 °C 10.2 °C 998.9 hPa SSW 2.6 km/h 4.8 km/h 85 % 0 mm
17:27 12.6 °C 10.1 °C 999.2 hPa SW 0.2 km/h 3.7 km/h 85 % 0 mm
17:32 12.4 °C 10 °C 999.2 hPa SW 4.8 km/h 5.6 km/h 85 % 0 mm
17:38 12.4 °C 10.1 °C 999.2 hPa SW 0.6 km/h 3.7 km/h 86 % 0 mm
17:43 12.3 °C 10 °C 999.2 hPa SW 1 km/h 3.7 km/h 86 % 0 mm
17:48 12.2 °C 9.9 °C 999.2 hPa SW 0.8 km/h 3.7 km/h 86 % 0 mm
17:53 12.1 °C 9.9 °C 999.2 hPa Calm   1.6 km/h 87 % 0 mm
17:58 11.9 °C 9.8 °C 999.2 hPa SW 0.2 km/h 3.7 km/h 87 % 0 mm
18:03 11.8 °C 9.7 °C 999.2 hPa SW 1.6 km/h 5.6 km/h 87 % 0 mm
18:08 11.7 °C 9.6 °C 998.9 hPa Calm     87 % 0 mm
18:13 11.7 °C 9.6 °C 998.9 hPa SW 1.4 km/h 3.7 km/h 87 % 0 mm
18:18 11.6 °C 9.7 °C 998.9 hPa SSW 1.9 km/h 5.6 km/h 88 % 0 mm
18:23 11.6 °C 9.8 °C 998.5 hPa SSW 2.1 km/h 5.6 km/h 89 % 0 mm
18:28 11.6 °C 9.8 °C 998.5 hPa SSW 4.3 km/h 6.4 km/h 89 % 0 mm
18:33 11.5 °C 9.9 °C 998.5 hPa SSW 5.5 km/h 9.3 km/h 90 % 0 mm
18:38 11.6 °C 10.1 °C 998.5 hPa SSW 3.2 km/h 5.6 km/h 91 % 0 mm
18:43 11.6 °C 10.1 °C 998.9 hPa WSW 4.7 km/h 7.4 km/h 91 % 0 mm
18:48 11.7 °C 10.2 °C 998.5 hPa SW 2.9 km/h 5.6 km/h 91 % 0 mm
18:53 11.7 °C 10.3 °C 998.9 hPa SSW 4.8 km/h 7.4 km/h 91 % 0 mm
18:59 11.8 °C 10.3 °C 998.9 hPa SSW 1 km/h 9.3 km/h 91 % 0 mm
19:04 11.8 °C 10.4 °C 998.9 hPa WSW 4.8 km/h 5.6 km/h 91 % 0 mm
19:09 11.8 °C 10.4 °C 998.9 hPa SW 2.6 km/h 7.4 km/h 91 % 0 mm
19:14 11.9 °C 10.4 °C 998.9 hPa SSW 2.3 km/h 5.6 km/h 91 % 0 mm
19:19 11.9 °C 10.4 °C 998.9 hPa SW 2.3 km/h 5.6 km/h 91 % 0 mm
19:24 11.9 °C 10.4 °C 998.5 hPa SSW 1.3 km/h 3.2 km/h 91 % 0 mm
19:29 11.9 °C 10.3 °C 998.5 hPa SW 1.6 km/h 3.7 km/h 90 % 0 mm
19:34 11.9 °C 10.3 °C 998.9 hPa SW 1.1 km/h 5.6 km/h 90 % 0 mm
19:39 11.8 °C 10.2 °C 998.9 hPa SW 2.7 km/h 5.6 km/h 90 % 0 mm
19:44 11.8 °C 10.2 °C 998.5 hPa Calm     90 % 0 mm
19:49 11.8 °C 10.2 °C 998.5 hPa Calm   1.9 km/h 90 % 0 mm
19:54 11.7 °C 10.1 °C 998.5 hPa SW 0.3 km/h 1.6 km/h 90 % 0 mm
19:59 11.7 °C 10.1 °C 998.5 hPa SW 1.4 km/h 3.7 km/h 90 % 0 mm
20:04 11.6 °C 9.9 °C 998.5 hPa Calm     90 % 0 mm
20:09 11.5 °C 9.9 °C 998.2 hPa Calm     90 % 0 mm
20:14 11.4 °C 9.9 °C 998.2 hPa Calm     90 % 0 mm
20:19 11.4 °C 9.8 °C 998.2 hPa Calm     90 % 0 mm
20:24 11.3 °C 9.7 °C 998.2 hPa Calm     90 % 0 mm
20:29 11.2 °C 9.6 °C 997.9 hPa Calm   1.9 km/h 90 % 0 mm
20:34 11.1 °C 9.6 °C 997.9 hPa Calm     90 % 0 mm
20:40 11.1 °C 9.5 °C 997.9 hPa Calm     90 % 0 mm
20:45 10.9 °C 9.4 °C 997.9 hPa Calm     90 % 0 mm
20:50 10.9 °C 9.3 °C 997.9 hPa Calm   5.6 km/h 90 % 0 mm
20:55 10.8 °C 9.2 °C 997.9 hPa WSW 0.3 km/h 5.6 km/h 90 % 0 mm
21:00 10.7 °C 9.2 °C 997.9 hPa WSW 0.8 km/h 3.7 km/h 90 % 0 mm
21:05 10.7 °C 9.3 °C 997.9 hPa SSE 1.8 km/h 5.6 km/h 91 % 0 mm
21:10 10.7 °C 9.3 °C 997.9 hPa SSW 2.3 km/h 5.6 km/h 91 % 0 mm
21:15 10.7 °C 9.4 °C 997.9 hPa SSW 5.5 km/h 8 km/h 92 % 0 mm
21:20 10.8 °C 9.7 °C 997.9 hPa SSW 4.3 km/h 6.4 km/h 93 % 0 mm
21:25 10.9 °C 9.8 °C 997.9 hPa WSW 4.7 km/h 5.6 km/h 93 % 0 mm
21:30 11 °C 10.1 °C 997.5 hPa WSW 2.7 km/h 5.6 km/h 94 % 0 mm
21:35 11.2 °C 10.2 °C 997.5 hPa WSW 2.9 km/h 5.6 km/h 94 % 0 mm
21:45 11.4 °C 10.4 °C 997.2 hPa WSW 0.3 km/h 5.6 km/h 94 % 0 mm
21:50 11.6 °C 10.6 °C 997.2 hPa Calm     94 % 0 mm
21:55 11.7 °C 10.7 °C 997.5 hPa WSW 0.5 km/h 1.9 km/h 94 % 0 mm
22:00 11.7 °C 10.8 °C 997.5 hPa Calm   1.6 km/h 94 % 0 mm
22:06 11.8 °C 10.8 °C 997.5 hPa Calm   5.6 km/h 94 % 0 mm
22:11 11.8 °C 10.7 °C 997.5 hPa Calm   3.2 km/h 93 % 0 mm
22:16 11.8 °C 10.7 °C 997.2 hPa West 1.6 km/h 3.2 km/h 93 % 0 mm
22:21 11.8 °C 10.7 °C 997.2 hPa Calm     93 % 0 mm
22:26 11.8 °C 10.7 °C 996.8 hPa Calm     93 % 0 mm
22:31 11.8 °C 10.7 °C 996.8 hPa Calm     93 % 0 mm
22:36 11.8 °C 10.5 °C 996.8 hPa West 1.6 km/h 3.2 km/h 92 % 0 mm
22:41 11.7 °C 10.4 °C 996.8 hPa WSW 3.2 km/h 9.7 km/h 92 % 0 mm
22:46 11.6 °C 10.3 °C 996.2 hPa SSW 3.4 km/h 5.6 km/h 92 % 0 mm
22:51 11.6 °C 10.3 °C 996.5 hPa SSW 4.8 km/h 9.7 km/h 92 % 0 mm
22:56 11.7 °C 10.6 °C 996.5 hPa SSW 1.6 km/h 9.7 km/h 93 % 0 mm
23:01 11.7 °C 10.6 °C 996.2 hPa South 1.1 km/h 3.7 km/h 93 % 0 mm
23:06 11.8 °C 10.8 °C 996.2 hPa SSW 4.8 km/h 9.7 km/h 94 % 0 mm
23:11 11.8 °C 10.9 °C 996.2 hPa SW 4.8 km/h 11.3 km/h 94 % 0 mm
23:16 11.9 °C 10.9 °C 996.2 hPa SW 8 km/h 12.9 km/h 94 % 0 mm
23:21 11.9 °C 11 °C 995.8 hPa SSW 3.2 km/h 11.3 km/h 94 % 0 mm
23:26 12 °C 11.3 °C 995.8 hPa SSW 4.8 km/h 11.3 km/h 95 % 0 mm
23:31 12.1 °C 11.3 °C 995.8 hPa SW 3.2 km/h 9.3 km/h 95 % 0 mm
23:36 12.2 °C 11.4 °C 995.8 hPa SW 4.8 km/h 11.3 km/h 95 % 0 mm
23:41 12.3 °C 11.5 °C 995.8 hPa West 8 km/h 11.3 km/h 95 % 0 mm
23:46 12.3 °C 11.6 °C 995.8 hPa West 8 km/h 14.5 km/h 95 % 0 mm
23:51 12.4 °C 11.6 °C 995.5 hPa SW 4.8 km/h 11.3 km/h 95 % 0 mm
23:56 12.4 °C 11.6 °C 995.5 hPa SW 4.8 km/h 11.3 km/h 95 % 0 mm
Crab Meadow Weather
Compliments of Weather Underground - 3 mb

Script developed by  Jim McMurry - jmcmurry@mwt.net Adapted for the template by  Wim van der Kuil - Leuven-Template.eu

Recycling: To produce each week's Sunday newspapers, 500,000 trees must be cut down.